Time,TemperatureF,DewpointF,PressureIn,WindDirection,WindDirectionDegrees,WindSpeedMPH,WindSpeedGustMPH,Humidity,HourlyPrecipIn,Conditions,Clouds,dailyrainin,SoftwareType,DateUTC
2013-08-11 17:27:00,90.0,78.0,30.09,East,79,1.0,9.0,67,0.00,,,0.00,,2013-08-11 21:27:00,
2013-08-11 17:37:00,90.0,78.0,30.09,NE,53,3.0,7.0,67,0.00,,,0.00,,2013-08-11 21:37:00,
2013-08-11 17:50:00,90.0,77.0,30.09,East,80,2.0,7.0,66,0.00,,,0.00,,2013-08-11 21:50:00,
2013-08-11 17:59:00,90.0,78.0,30.09,ENE,58,2.0,9.0,68,0.00,,,0.00,,2013-08-11 21:59:00,
2013-08-11 18:04:00,89.0,77.0,30.09,East,86,4.0,11.0,67,0.00,,,0.00,,2013-08-11 22:04:00,
2013-08-11 18:35:00,89.0,77.0,30.09,East,98,2.0,12.0,68,0.00,,,0.00,,2013-08-11 22:35:00,
2013-08-11 18:46:00,89.0,77.0,30.08,ENE,62,4.0,9.0,67,0.00,,,0.00,,2013-08-11 22:46:00,
2013-08-11 18:55:00,88.0,76.0,30.09,East,79,4.0,9.0,67,0.00,,,0.00,,2013-08-11 22:55:00,
2013-08-11 19:05:00,88.0,76.0,30.08,ENE,68,4.0,10.0,67,0.00,,,0.00,,2013-08-11 23:05:00,
2013-08-11 19:16:00,87.0,76.0,30.08,East,91,2.0,7.0,70,0.00,,,0.00,,2013-08-11 23:16:00,
2013-08-11 19:28:00,87.0,76.0,30.08,East,82,2.0,11.0,71,0.00,,,0.00,,2013-08-11 23:28:00,
2013-08-11 19:35:00,87.0,77.0,30.08,East,96,4.0,10.0,73,0.00,,,0.00,,2013-08-11 23:35:00,
2013-08-11 19:48:00,86.0,77.0,30.08,East,82,5.0,10.0,74,0.00,,,0.00,,2013-08-11 23:48:00,
2013-08-11 19:56:00,85.0,76.0,30.09,ENE,68,4.0,8.0,75,0.00,,,0.00,,2013-08-11 23:56:00,
2013-08-11 20:05:00,85.0,77.0,30.08,ESE,107,1.0,11.0,76,0.00,,,0.00,,2013-08-12 00:05:00,
2013-08-11 20:17:00,85.0,77.0,30.09,ENE,75,1.0,6.0,76,0.00,,,0.00,,2013-08-12 00:17:00,
2013-08-11 20:24:00,84.0,76.0,30.09,East,87,2.0,10.0,78,0.00,,,0.00,,2013-08-12 00:24:00,
2013-08-11 20:48:00,84.0,76.0,30.09,East,89,2.0,8.0,78,0.00,,,0.00,,2013-08-12 00:48:00,
2013-08-11 20:54:00,84.0,76.0,30.09,NNE,32,0.0,5.0,78,0.00,,,0.00,,2013-08-12 00:54:00,
2013-08-11 21:07:00,84.0,76.0,30.10,East,93,3.0,7.0,78,0.00,,,0.00,,2013-08-12 01:07:00,
2013-08-11 21:14:00,84.0,77.0,30.10,ESE,105,2.0,6.0,79,0.00,,,0.00,,2013-08-12 01:14:00,
2013-08-11 21:25:00,84.0,76.0,30.10,East,80,2.0,7.0,78,0.00,,,0.00,,2013-08-12 01:25:00,
2013-08-11 21:37:00,84.0,76.0,30.11,ENE,73,2.0,6.0,78,0.00,,,0.00,,2013-08-12 01:37:00,
2013-08-11 21:55:00,84.0,76.0,30.11,East,101,0.0,4.0,78,0.00,,,0.00,,2013-08-12 01:55:00,
2013-08-11 22:08:00,83.0,76.0,30.11,East,99,0.0,3.0,79,0.00,,,0.00,,2013-08-12 02:08:00,
2013-08-11 22:14:00,83.0,76.0,30.11,East,98,0.0,3.0,79,0.00,,,0.00,,2013-08-12 02:14:00,
2013-08-11 22:24:00,83.0,76.0,30.11,ENE,74,0.0,5.0,79,0.00,,,0.00,,2013-08-12 02:24:00,
2013-08-11 22:46:00,83.0,76.0,30.12,ENE,62,0.0,3.0,80,0.00,,,0.00,,2013-08-12 02:46:00,
2013-08-11 22:55:00,83.0,77.0,30.12,East,79,0.0,2.0,81,0.00,,,0.00,,2013-08-12 02:55:00,
2013-08-11 23:07:00,83.0,76.0,30.13,East,79,1.0,4.0,80,0.00,,,0.00,,2013-08-12 03:07:00,
2013-08-11 23:15:00,83.0,76.0,30.13,East,89,1.0,3.0,79,0.00,,,0.00,,2013-08-12 03:15:00,
2013-08-11 23:25:00,83.0,76.0,30.13,NNE,33,0.0,2.0,80,0.00,,,0.00,,2013-08-12 03:25:00,
2013-08-11 23:38:00,83.0,76.0,30.13,NNE,18,0.0,1.0,80,0.00,,,0.00,,2013-08-12 03:38:00,
2013-08-11 23:45:00,83.0,76.0,30.13,East,85,0.0,1.0,80,0.00,,,0.00,,2013-08-12 03:45:00,
2013-08-11 23:56:00,83.0,77.0,30.13,ESE,111,0.0,2.0,81,0.00,,,0.00,,2013-08-12 03:56:00,